| time (UTC) | temp F | wind direction | speed MPH | gust MPH | rain 1hr in | rain 24hr in | rain mn in | humidity % | barometer mb |
| 20260505040025 | 83 | 337 | 0.0 | 0.0 | 0.00 | 0.00 | 0.00 | 29 | 1022.2 |
| 20260505033024 | 82 | 315 | 9.0 | 0.0 | 0.00 | 0.00 | 0.00 | 31 | 1022.9 |
| 20260505030024 | 81 | 315 | 8.0 | 0.0 | 0.00 | 0.00 | 0.00 | 33 | 1023.3 |
| 20260505023023 | 80 | 315 | 10.0 | 0.0 | 0.00 | 0.00 | 0.00 | 35 | 1024.0 |
| 20260505020022 | 78 | 315 | 3.0 | 0.0 | 0.00 | 0.00 | 0.00 | 36 | 1024.7 |
| 20260505013022 | 76 | 0 | 2.0 | 0.0 | 0.00 | 0.00 | 0.00 | 36 | 1025.3 |
| 20260505010021 | 73 | 0 | 0.0 | 0.0 | 0.00 | 0.00 | 0.00 | 37 | 1026.1 |
| 20260505003020 | 71 | 112 | 0.0 | 0.0 | 0.00 | 0.00 | 0.00 | 40 | 1026.3 |
| 20260505000019 | 69 | 112 | 0.0 | 0.0 | 0.00 | 0.00 | 0.00 | 45 | 1026.7 |
| 20260504233018 | 65 | 135 | 2.0 | 0.0 | 0.00 | 0.00 | 0.00 | 51 | 1027.2 |
| 20260504230018 | 62 | 90 | 0.0 | 0.0 | 0.00 | 0.00 | 0.00 | 54 | 1027.2 |
| 20260504223016 | 59 | 157 | 0.0 | 0.0 | 0.00 | 0.00 | 0.00 | 60 | 1027.2 |
| 20260504220015 | 56 | 112 | 0.0 | 0.0 | 0.00 | 0.00 | 0.00 | 66 | 1027.0 |
| 20260504213015 | 54 | 135 | 0.0 | 0.0 | 0.00 | 0.00 | 0.00 | 67 | 1026.8 |
| 20260504210014 | 53 | 157 | 0.0 | 0.0 | 0.00 | 0.00 | 0.00 | 66 | 1025.9 |
| 20260504203013 | 53 | 135 | 0.0 | 0.0 | 0.00 | 0.00 | 0.00 | 65 | 1025.2 |
| 20260504200013 | 54 | 135 | 0.0 | 0.0 | 0.00 | 0.00 | 0.00 | 64 | 1024.4 |
| 20260504193012 | 54 | 90 | 0.0 | 0.0 | 0.00 | 0.00 | 0.00 | 64 | 1023.7 |
| 20260504190011 | 55 | 45 | 0.0 | 0.0 | 0.00 | 0.00 | 0.00 | 63 | 1023.4 |
| 20260504183010 | 55 | 337 | 2.0 | 0.0 | 0.00 | 0.00 | 0.00 | 62 | 1022.8 |
| 20260504173008 | 56 | 0 | 3.0 | 0.0 | 0.00 | 0.00 | 0.00 | 60 | 1022.0 |
| 20260504050017 | 71 | 292 | 10.0 | 0.0 | 0.00 | 3.52 | 0.00 | 49 | 1009.6 |